Temp
12 12 12 11 11 10 10 10 10 10 10 11 11 11 10 10 11 11 11 11 11 11 10 10 10 10 10 10 10 10 10 10 10 10 9 9 10 9 9 9 9 9 9 9 8 8 8 8 8 7 7 7 7 7 7 7 6 6 6 6 6 6 6 6 6 6 6 6 6
12 11 11 11 10 10 10 10 10 10 10 10 10 10 10 10 10 10 10 11 11 11 10 10 10 10 10 9 10 10 10 10 9 9 9 9 9 9 9 9 9 9 8 8 8 8 8 7 7 7 7 7 7 7 7 6 6 6 6 6 6 6 6 6 6 6 6 6 6
11 11 10 10 10 10 10 9 9 9 10 10 10 10 10 10 10 10 10 11 11 10 10 10 10 9 9 9 9 9 9 9 9 9 9 9 9 9 9 9 8 8 8 8 8 8 7 7 7 7 7 7 7 7 7 6 6 6 6 6 6 6 6 6 6 6 6 6 5
10 10 10 10 10 9 9 9 9 10 10 10 10 10 10 10 10 10 10 11 10 10 10 10 9 9 9 9 9 9 9 9 9 9 9 9 9 9 8 8 8 8 8 8 7 7 7 7 7 7 7 7 7 7 7 6 6 6 6 6 6 6 6 5 5 5 5 5 5
10 10 10 9 9 9 9 9 9 10 10 10 10 10 11 11 10 10 10 10 10 10 10 9 9 9 9 9 9 9 9 9 9 9 9 8 8 8 8 8 8 8 8 8 7 7 7 7 7 7 7 7 7 7 7 6 6 6 6 6 5 5 5 5 5 5 5 5 5
10 9 9 9 9 9 9 9 9 10 10 10 10 11 11 10 10 10 10 10 9 9 9 9 9 9 9 9 9 9 9 8 8 8 8 8 8 8 8 8 8 8 8 7 7 7 7 7 7 7 6 6 6 6 6 6 6 6 6 6 5 5 5 5 5 5 5 5 5
9 9 9 9 9 9 9 9 10 10 10 10 11 11 11 10 10 10 10 9 9 9 9 9 9 9 9 9 9 8 8 8 8 8 8 8 8 8 8 8 7 7 7 7 7 7 7 7 6 6 6 6 6 6 6 6 6 5 6 6 6 5 5 5 5 5 5 4 4
9 9 9 9 9 9 9 9 10 10 11 11 11 11 10 10 10 10 9 9 9 9 9 9 9 8 8 8 8 8 8 8 8 8 8 8 8 8 7 7 7 7 7 7 7 7 6 6 6 6 6 6 6 6 6 6 5 5 5 5 6 5 5 5 5 5 4 4 4
9 9 9 9 9 9 9 10 10 11 11 11 11 10 10 10 10 9 9 9 9 9 9 8 8 8 8 8 8 8 8 8 8 8 8 8 8 7 7 7 7 7 7 7 7 6 6 6 6 6 6 6 6 6 6 6 5 5 5 5 5 5 5 5 5 5 4 4 4
9 9 9 9 9 9 10 10 10 11 11 11 11 10 10 10 9 9 9 9 9 8 8 8 8 8 8 8 8 8 8 8 8 8 7 7 7 7 7 7 7 7 7 7 6 6 6 6 6 6 6 6 6 6 6 5 5 5 5 5 5 5 5 5 5 5 4 4 4
9 9 9 9 9 9 10 10 10 11 11 11 10 10 9 9 9 9 9 9 8 8 8 8 8 8 8 8 8 8 8 8 7 7 7 7 7 7 7 7 7 7 6 6 6 6 6 6 6 6 6 6 6 6 6 5 5 5 5 5 5 5 5 5 5 4 4 4 4
9 9 9 9 9 10 10 10 10 11 10 10 10 9 9 9 9 8 8 8 8 8 8 8 8 8 8 8 7 7 7 7 7 7 7 7 7 7 7 7 7 6 6 6 6 6 6 6 6 6 6 6 6 6 6 5 5 5 5 5 5 5 5 5 5 5 4 4 4
9 9 9 9 10 10 10 10 10 10 10 9 9 9 9 8 8 8 8 8 8 8 8 7 7 7 7 7 7 7 7 7 7 7 7 7 7 7 7 6 6 6 6 6 6 6 6 6 6 6 6 6 6 6 6 5 5 5 5 5 5 5 5 5 5 5 4 4 4
9 9 9 10 10 10 10 10 10 10 9 9 9 8 8 8 8 8 8 8 8 7 7 7 7 7 7 7 7 7 7 7 7 7 7 7 7 7 6 6 6 6 6 6 6 5 5 5 5 5 5 5 5 5 5 5 5 5 5 5 5 5 5 5 5 4 4 4 4
9 9 9 10 10 10 10 10 10 9 9 9 8 8 8 8 8 8 8 7 7 7 7 7 7 7 7 7 7 7 7 7 7 7 7 7 6 6 6 6 6 6 6 5 5 5 5 5 5 5 5 5 5 5 5 5 5 5 5 5 5 5 4 4 4 4 4 4 3
9 9 10 10 10 10 10 10 9 9 9 8 8 8 8 8 7 7 7 7 7 7 7 7 7 7 7 7 7 7 7 7 7 7 6 6 6 6 6 6 6 5 5 5 5 5 5 5 5 5 5 5 5 5 5 5 5 5 5 5 4 4 4 4 4 4 4 3 3
9 10 10 10 10 10 10 9 9 9 8 8 8 8 7 7 7 7 7 7 7 7 7 6 6 6 6 6 6 7 7 7 7 6 6 6 6 6 6 5 5 5 5 5 5 5 5 5 5 4 4 4 4 4 4 4 4 4 4 4 4 4 4 4 4 4 3 3 3
9 10 10 10 10 10 9 9 9 8 8 8 7 7 7 7 7 7 7 7 7 6 6 6 6 6 6 6 6 6 6 6 6 6 6 6 6 6 5 5 5 5 5 5 5 5 5 5 4 4 4 4 4 4 4 4 4 4 4 4 4 4 4 4 4 3 3 3 3
10 10 10 10 10 9 9 8 8 8 7 7 7 7 7 7 7 7 6 6 6 6 6 6 6 6 6 6 6 6 6 6 6 6 6 6 5 5 5 5 5 5 4 4 4 4 4 4 4 4 4 4 4 4 4 4 4 4 4 4 4 4 4 4 3 3 3 3 3
10 10 10 10 9 9 8 8 8 7 7 7 7 7 7 6 6 6 6 6 6 6 6 6 6 6 6 6 6 6 6 6 6 6 5 5 5 5 5 4 4 4 4 4 4 4 4 4 4 4 4 4 4 4 4 4 4 4 4 4 4 4 4 3 3 3 3 3 2
10 10 10 9 8 8 8 7 7 7 7 7 7 6 6 6 6 6 6 6 6 6 6 6 6 6 6 6 6 6 6 6 5 5 5 5 5 5 4 4 4 4 4 4 4 4 4 4 4 3 3 4 4 4 4 4 4 4 4 4 4 4 3 3 3 3 3 2 2
10 9 9 8 8 8 7 7 7 7 7 6 6 6 6 6 6 6 6 6 6 6 6 6 6 6 6 6 5 5 5 5 5 5 5 5 5 4 4 4 4 4 4 3 3 3 3 3 3 3 3 3 3 4 4 4 4 4 4 4 4 3 3 3 3 3 3 2 2
9 8 8 8 7 7 7 7 7 7 6 6 6 6 6 6 6 6 6 6 6 6 6 6 5 5 5 5 5 5 5 5 5 5 5 5 4 4 4 4 4 3 3 3 3 3 3 3 3 3 3 3 3 4 4 4 4 4 4 4 3 3 3 3 3 3 2 2 2
8 8 7 7 7 7 7 7 6 6 6 6 6 6 6 6 5 5 5 5 5 5 5 5 5 5 5 5 5 5 5 5 5 4 4 4 4 4 4 4 3 3 3 3 3 3 3 2 2 2 2 3 3 3 3 3 3 3 3 3 3 3 3 3 2 2 2 2 2
7 7 7 7 7 7 7 6 6 6 6 6 6 6 6 5 5 5 5 5 5 5 5 5 5 5 5 5 5 5 4 4 4 4 4 4 4 4 4 3 3 3 3 2 2 2 2 2 2 1 1 2 2 2 2 2 3 3 3 3 3 3 3 2 2 2 2 2 2
7 7 7 7 7 6 6 6 6 6 6 5 5 5 5 5 5 5 5 5 5 5 5 5 5 5 5 4 4 4 4 4 4 4 4 3 3 3 3 3 3 3 2 2 2 2 2 1 1 1 1 1 1 2 2 2 2 2 2 2 2 2 2 2 2 2 2 2 2
7 7 7 7 6 6 6 6 5 5 5 5 5 5 5 5 5 5 5 5 5 4 4 4 4 4 4 4 4 4 4 4 4 4 4 4 3 3 3 3 3 2 2 2 2 2 1 1 1 0 1 1 1 1 1 1 1 2 2 2 2 2 2 2 2 2 2 2 1
7 7 6 6 6 6 5 5 5 5 5 5 5 5 5 5 5 5 5 4 4 4 4 4 4 4 4 3 3 4 4 4 4 4 4 4 3 3 2 2 2 2 2 2 2 1 1 1 0 0 0 0 0 0 1 1 1 1 2 2 2 2 2 2 2 2 1 1 1
6 6 6 6 6 5 5 5 5 5 5 5 5 5 5 5 5 5 4 4 4 4 4 4 3 3 3 3 3 4 4 4 4 4 3 3 3 2 2 2 2 2 1 1 1 1 1 0 0 0 0 0 -0 -0 0 0 1 1 1 2 2 2 2 2 2 1 1 1 1
6 6 6 5 5 5 5 5 5 5 5 5 5 5 5 5 5 4 4 4 4 4 3 3 3 3 3 3 4 4 4 4 3 3 3 2 2 2 2 2 2 1 1 1 1 1 0 -0 -0 -0 -0 -0 -0 -0 -0 0 0 1 1 1 2 2 2 1 1 1 1 1 1
6 6 5 5 5 5 5 5 5 5 5 5 5 5 5 5 4 4 4 4 4 3 3 3 3 3 3 3 3 3 3 3 3 2 2 2 2 2 2 2 2 1 1 1 1 0 0 -0 -0 -0 -1 -1 -1 -1 -0 -0 0 1 1 1 1 1 1 1 1 1 1 0 0
6 5 5 5 5 5 5 5 5 5 5 5 5 5 4 4 4 4 3 3 3 3 3 3 3 3 3 3 3 3 2 2 2 2 2 2 1 1 1 2 2 1 1 1 0 0 -0 -1 -1 -1 -1 -1 -1 -1 -1 -0 0 1 1 1 1 1 1 1 1 1 0 0 0
5 5 5 5 5 5 5 5 5 5 5 5 4 4 4 3 3 3 3 3 3 3 3 3 3 3 2 2 2 2 2 2 2 2 2 1 1 1 1 2 2 1 1 1 0 -0 -1 -1 -1 -1 -1 -1 -1 -1 -1 -0 0 1 1 1 1 1 1 1 1 0 0 0 -0
5 5 5 5 5 5 5 5 5 4 4 4 4 3 3 3 3 3 3 3 3 3 3 3 2 2 2 2 2 2 2 2 2 1 1 1 1 1 1 1 1 1 1 0 -0 -1 -1 -1 -1 -1 -1 -1 -1 -1 -1 -0 0 1 1 1 1 1 1 1 1 0 0 0 -0
5 5 5 5 5 5 5 4 4 4 4 3 3 3 3 3 3 3 3 3 3 3 2 2 2 2 2 2 2 2 2 2 1 1 1 1 1 1 1 1 1 1 0 -0 -1 -1 -1 -1 -2 -2 -2 -2 -1 -1 -0 -0 0 1 1 1 1 1 1 1 0 0 0 -0 -0
5 5 5 5 5 4 4 4 4 3 3 3 3 2 2 3 3 3 3 2 2 2 2 2 2 2 2 2 2 2 2 1 1 1 1 1 1 1 1 1 1 1 0 -1 -1 -1 -2 -2 -2 -2 -2 -2 -1 -1 -1 -0 0 0 1 1 1 1 1 0 0 0 -0 -0 -0
5 5 5 4 4 4 4 4 3 3 3 2 2 2 2 2 2 2 2 2 2 2 2 2 2 2 2 2 2 1 1 1 1 1 1 1 1 1 1 1 1 0 -0 -1 -1 -2 -2 -2 -2 -2 -2 -2 -1 -1 -1 -0 -0 0 0 0 1 1 0 0 0 -0 -0 -0 -1
5 4 4 4 4 4 3 3 3 3 2 2 2 2 2 2 2 2 2 2 2 2 2 2 2 2 2 2 1 1 1 1 1 1 1 1 0 0 0 0 0 -0 -0 -1 -1 -2 -2 -2 -2 -2 -2 -2 -2 -1 -1 -1 -0 -0 0 0 0 0 0 -0 -0 -0 -1 -1 -1
4 4 4 4 3 3 3 3 3 2 2 2 2 2 2 2 2 2 2 2 2 2 2 2 2 2 1 1 1 1 1 1 1 0 0 0 0 -0 -0 -0 -0 -0 -1 -1 -2 -2 -2 -2 -2 -2 -2 -2 -2 -1 -1 -1 -1 -0 -0 0 0 -0 -0 -0 -1 -1 -1 -1 -1
4 4 4 3 3 3 3 3 2 2 2 2 2 2 2 2 2 2 2 2 2 2 2 2 2 1 1 1 1 1 1 1 1 0 0 -0 -0 -0 -1 -1 -1 -1 -1 -1 -2 -2 -2 -2 -2 -2 -2 -2 -2 -2 -1 -1 -1 -1 -0 -0 -0 -0 -1 -1 -1 -1 -1 -2 -2
4 4 3 3 3 3 3 2 2 2 2 2 2 2 2 2 2 2 2 2 2 2 2 1 1 1 1 1 1 1 1 1 1 0 0 -0 -0 -1 -1 -1 -1 -1 -1 -1 -2 -2 -2 -3 -2 -2 -2 -2 -2 -2 -2 -1 -1 -1 -1 -1 -1 -1 -1 -1 -2 -2 -2 -2 -2
Height
733 736 738 740 742 744 746 748 749 751 753 756 758 760 762 764 766 768 771 773 775 776 776 777 778 780 782 782 783 784 785 786 787 789 790 791 792 792 793 794 795 796 796 797 797 798 799 799 799 799 800 800 800 801 801 801 801 801 801 802 802 802 802 802 802 802 802 802 802
733 736 737 740 742 743 746 748 749 751 753 757 758 760 762 764 766 768 771 773 774 775 776 777 778 780 781 782 782 783 784 786 787 788 790 791 791 792 793 794 795 796 796 797 797 798 798 799 799 799 799 800 800 800 801 801 801 801 801 801 801 802 802 802 802 801 801 801 801
733 736 737 740 741 743 745 747 749 751 753 756 758 760 762 764 766 768 770 772 773 774 775 776 778 780 781 782 782 783 784 785 787 788 789 790 791 792 793 794 795 795 796 797 797 797 798 798 799 799 799 799 800 800 800 800 800 800 801 801 801 801 801 801 801 801 801 800 800
733 736 737 739 741 743 744 746 748 751 753 756 758 760 762 764 767 768 770 771 772 773 774 775 777 779 781 781 782 782 784 785 787 788 789 790 791 792 793 794 795 795 796 796 797 797 798 798 798 798 799 799 799 800 800 800 800 800 800 800 800 800 800 800 800 800 800 800 800
734 736 738 739 741 742 744 746 748 750 753 755 757 760 762 764 766 768 769 770 771 772 773 775 777 779 780 781 782 782 784 785 786 787 789 790 791 792 793 794 794 795 796 796 797 797 797 798 798 798 798 799 799 799 800 800 800 800 800 800 800 800 800 800 799 799 799 799 799
734 736 738 739 741 743 745 746 748 750 753 755 757 759 761 764 766 767 768 769 770 771 773 775 777 778 780 781 781 782 783 785 786 787 788 790 791 792 793 793 794 795 795 796 796 797 797 797 798 798 798 798 799 799 799 799 799 799 799 799 799 799 799 799 799 799 798 798 798
734 736 738 740 741 743 745 747 748 751 753 755 757 758 760 762 764 765 766 767 769 771 773 775 777 778 779 780 781 782 783 785 786 787 788 789 791 792 792 793 794 795 795 796 796 796 797 797 797 798 798 798 798 798 799 799 799 799 799 799 799 799 798 798 798 798 797 797 797
734 736 737 739 742 743 745 746 748 751 753 755 757 758 760 762 763 764 765 767 769 771 772 775 777 778 779 780 781 782 783 785 786 787 788 789 790 791 792 793 794 794 795 795 796 796 797 797 797 797 798 798 798 798 798 798 798 798 798 798 798 798 798 797 797 797 797 797 797
734 736 738 740 742 743 745 747 749 751 753 755 756 758 760 761 762 763 765 767 768 770 772 774 776 777 778 779 781 782 783 785 786 787 788 789 790 791 792 793 793 794 795 795 796 796 797 797 797 797 797 797 798 798 798 798 798 798 798 798 798 797 797 797 797 796 796 796 796
734 736 738 740 742 744 745 747 749 751 753 755 756 758 759 760 761 763 764 766 768 770 772 774 776 777 778 779 781 782 783 785 786 787 788 789 790 791 792 792 793 794 794 795 795 796 796 797 797 797 797 797 797 797 797 797 797 797 797 797 797 797 797 796 796 796 795 795 795
734 736 738 740 742 744 745 747 749 751 753 755 756 757 758 760 761 762 764 766 768 770 772 774 776 777 778 779 781 782 783 784 785 787 788 789 790 791 792 792 793 794 794 794 795 795 796 797 797 797 797 797 797 797 797 797 797 797 797 797 797 796 796 795 795 795 794 794 794
734 736 738 740 742 743 745 747 749 751 753 754 755 756 758 759 761 762 764 766 768 771 772 774 776 777 778 779 781 782 783 784 785 787 787 789 790 791 792 792 793 793 794 794 795 795 796 796 797 797 797 797 797 797 797 797 797 797 796 796 796 795 795 794 794 794 793 793 793
734 737 738 740 742 743 745 747 749 751 752 753 754 756 758 759 761 763 765 767 769 771 772 774 776 777 778 779 781 782 783 784 785 787 787 788 790 791 791 792 792 793 793 794 794 795 795 796 796 796 797 797 797 797 797 796 796 796 796 795 795 794 794 794 793 793 793 792 792
735 737 738 740 742 743 745 747 749 750 752 752 754 756 758 760 762 763 765 767 769 771 772 774 776 777 778 779 781 782 783 784 785 786 787 788 789 790 791 792 792 793 793 794 794 795 795 796 796 796 796 796 796 796 796 796 796 795 795 794 794 794 793 793 792 792 792 792 791
735 737 739 740 742 743 745 747 748 750 751 753 754 756 758 760 762 764 766 767 769 771 772 774 776 777 778 780 781 782 783 784 785 786 787 788 789 790 791 792 792 792 793 793 794 794 795 795 795 796 796 796 796 796 796 795 795 795 794 794 793 793 792 792 792 791 791 791 790
736 737 739 740 742 743 745 747 748 750 751 753 755 757 759 761 762 764 766 767 769 771 772 774 775 777 778 780 781 782 783 784 785 786 787 788 789 790 791 791 792 792 793 793 794 794 794 795 795 795 795 795 795 795 795 795 794 794 793 793 792 792 792 791 791 790 790 790 789
736 737 739 740 742 743 745 747 748 750 752 753 755 757 759 761 762 764 766 768 769 771 772 774 775 777 778 780 781 782 783 784 785 786 787 788 789 790 791 791 792 792 792 793 794 794 794 794 795 795 795 795 794 794 794 794 793 793 792 792 792 791 791 790 790 789 789 789 788
736 737 739 740 742 743 745 747 748 750 752 754 756 757 759 761 762 764 766 768 769 771 772 774 776 777 778 780 781 782 783 784 785 786 787 788 789 790 790 791 791 792 792 793 793 794 794 794 794 794 794 794 794 793 793 793 792 792 792 791 791 790 790 789 789 788 788 787 787
736 737 739 741 742 744 745 747 749 751 752 754 756 757 759 761 762 764 767 768 770 771 773 774 776 777 779 780 781 782 783 784 785 786 787 788 789 789 790 790 791 791 792 792 793 793 793 794 794 794 794 793 793 793 792 792 792 791 791 790 790 789 789 788 788 787 787 787 786
736 738 739 741 742 744 746 747 749 751 753 755 756 758 760 762 763 765 767 769 771 772 773 775 777 778 779 780 781 782 783 784 785 786 787 787 788 789 790 790 791 791 792 792 792 793 793 793 793 793 793 793 792 792 792 791 791 790 790 789 789 788 788 787 787 787 786 786 785
737 738 740 741 743 744 746 748 750 752 753 755 757 758 760 762 764 766 767 769 771 773 774 776 777 778 779 780 781 782 783 784 785 786 787 787 788 789 789 790 790 791 791 792 792 792 793 793 793 792 792 792 792 791 791 790 790 789 789 788 788 787 787 786 786 785 785 784 784
737 739 741 742 743 745 747 749 751 752 754 756 757 759 761 763 765 767 768 770 772 773 775 776 777 778 779 780 781 782 783 784 785 786 786 787 788 788 789 789 790 790 791 792 792 792 792 792 792 792 792 791 791 790 790 789 789 788 788 787 787 786 786 785 785 784 784 783 783
738 740 741 742 744 746 747 749 751 753 754 756 758 760 762 764 766 767 769 771 772 774 775 777 777 778 779 780 781 782 783 784 785 786 786 787 787 788 789 789 790 790 791 792 792 792 792 792 791 791 791 791 790 790 789 789 788 787 787 786 786 785 785 784 784 783 783 782 782
739 740 742 744 745 747 748 750 752 753 755 757 759 761 762 765 767 768 770 772 773 774 776 777 777 778 779 780 782 782 783 784 785 786 786 787 787 788 788 789 790 790 791 791 791 791 791 791 790 790 790 790 789 789 788 788 787 787 786 785 784 784 783 783 782 782 782 781 780
740 742 743 745 746 748 749 751 752 754 756 758 760 762 763 766 767 769 771 772 774 775 776 777 778 779 780 781 782 782 783 784 785 786 787 787 787 788 788 789 790 790 791 790 790 790 790 790 790 790 789 789 789 788 787 787 786 786 785 784 783 783 782 782 781 781 780 780 779
741 743 745 746 747 749 750 752 753 755 757 759 761 762 765 767 768 770 772 773 774 775 776 777 778 779 780 781 782 783 783 784 785 786 787 787 787 788 788 789 790 790 790 790 790 790 789 789 789 789 789 788 788 787 787 786 785 785 784 783 782 782 781 780 780 779 779 779 778
742 744 746 747 748 750 751 752 754 756 758 760 762 764 766 767 769 771 772 773 775 776 777 777 778 779 780 781 782 783 784 784 785 786 787 787 787 788 789 789 790 790 789 789 789 789 789 789 788 788 788 788 787 787 786 785 784 784 783 782 781 781 780 779 779 778 778 777 777
743 746 747 748 750 751 752 754 756 757 759 761 763 765 767 768 770 771 773 774 775 776 777 778 779 780 781 781 782 783 784 784 785 786 786 787 787 788 789 789 789 789 789 788 788 788 788 788 788 788 787 787 786 786 785 784 783 782 782 781 780 779 779 778 778 777 777 777 776
744 747 748 749 751 752 754 755 757 759 761 762 764 766 767 769 771 772 773 775 776 777 777 778 779 780 781 782 782 783 784 785 785 786 787 787 787 788 788 789 789 789 788 788 788 788 787 787 787 787 787 786 786 785 784 783 782 782 781 780 779 778 778 777 777 777 776 776 775
745 747 749 750 752 753 755 757 758 760 762 764 765 767 768 770 772 773 774 775 776 777 778 778 779 780 781 782 783 783 784 785 785 786 787 787 787 788 788 788 788 788 788 787 787 787 787 787 786 786 786 785 785 784 783 782 781 780 780 779 778 777 777 777 776 776 775 775 774
746 748 750 752 753 755 757 758 760 761 763 765 766 768 769 771 772 773 774 775 776 777 778 779 780 781 782 782 783 784 784 785 786 786 787 787 787 788 788 788 788 788 787 787 787 787 786 786 786 785 785 784 783 783 782 781 780 779 778 777 777 777 776 776 775 775 774 774 773
747 749 751 753 755 757 758 760 761 762 764 766 767 769 770 772 772 774 775 776 777 777 778 779 780 781 782 782 783 784 785 785 786 786 787 787 787 787 787 787 787 787 787 786 786 786 786 785 785 784 784 783 782 782 781 780 779 778 777 777 776 776 775 775 774 774 773 773 773
748 751 752 754 756 758 759 761 762 764 765 767 768 769 771 772 773 774 775 776 777 778 779 780 781 782 782 783 784 784 785 785 786 786 786 786 787 787 787 787 787 787 786 786 785 785 785 784 784 783 783 782 781 780 779 778 778 777 776 776 775 775 774 774 773 773 772 772 772
750 752 754 756 757 759 761 762 763 765 766 767 769 770 771 772 773 774 776 777 777 778 779 780 781 782 783 783 784 785 785 785 786 786 786 786 786 787 787 787 787 786 785 785 785 784 784 783 783 782 782 781 780 779 778 777 777 776 775 775 774 774 773 773 772 772 772 771 771
752 753 755 757 758 760 762 763 764 766 767 768 769 771 772 772 774 775 776 777 778 779 780 781 782 782 783 783 784 784 785 785 785 786 786 786 786 786 786 786 786 786 785 784 784 783 783 782 782 781 780 780 779 778 777 776 776 775 774 774 773 773 772 772 772 771 771 770 770
752 754 756 757 759 761 762 764 765 766 767 768 770 771 772 773 774 775 777 777 778 779 780 781 782 782 783 783 784 784 785 785 785 785 786 786 786 786 786 786 786 785 784 784 783 783 782 782 781 780 779 778 778 777 776 776 775 774 773 773 772 772 772 771 771 770 770 769 769
754 755 757 758 760 762 763 764 766 767 768 769 770 772 773 774 775 776 777 778 779 780 781 782 782 783 783 783 784 784 784 785 785 785 785 785 785 785 785 785 785 785 784 783 782 782 781 781 780 779 779 778 777 776 776 775 774 773 773 772 772 771 771 770 770 770 769 769 768
755 756 757 759 761 762 764 765 766 767 769 770 771 772 773 775 776 777 778 779 780 781 781 782 782 783 783 783 784 784 784 784 784 785 785 785 785 785 785 784 784 784 783 782 782 781 781 780 779 779 778 777 777 776 775 774 773 773 772 772 771 771 770 770 769 769 768 768 767
756 757 759 760 762 763 764 766 767 768 769 771 772 773 774 775 777 777 778 779 780 781 782 782 782 783 783 783 784 784 784 784 784 784 784 785 784 784 784 783 783 783 782 782 781 781 780 779 779 778 777 777 776 775 775 774 773 772 772 771 770 770 770 769 769 768 767 767 767
757 759 760 761 762 764 765 767 768 769 770 771 772 774 775 776 777 778 779 780 780 781 782 782 782 782 783 783 783 784 784 784 784 784 784 784 784 783 783 783 782 782 782 781 781 780 779 779 778 777 777 776 776 775 774 773 773 772 771 771 770 769 769 768 768 767 767 766 766
759 760 761 762 764 765 766 767 768 770 771 772 773 775 776 777 777 778 779 780 781 781 782 782 782 782 783 783 783 783 784 784 784 784 783 783 783 783 782 782 782 782 781 781 780 779 779 778 777 777 777 776 775 775 774 773 772 772 771 770 770 769 768 768 767 767 766 766 765
Wind_Speed
24 24 24 24 24 24 23 21 20 22 22 21 20 21 22 22 21 20 19 17 16 16 17 18 18 19 19 20 20 20 19 18 17 16 15 15 14 13 12 11 10 9 8 8 7 7 6 5 3 2 2 3 3 3 3 3 2 2 3 3 3 4 4 4 5 5 5 6 6
24 24 25 24 24 23 21 20 20 22 22 22 21 21 21 21 20 19 18 17 16 16 17 18 19 20 20 20 20 20 19 18 17 16 15 14 14 13 12 11 10 9 8 8 7 6 6 5 3 2 1 2 2 3 3 3 3 3 3 4 4 4 4 5 5 5 5 5 5
24 25 25 25 24 23 21 20 21 22 22 21 21 21 20 20 19 18 18 17 17 18 19 19 20 20 20 20 20 20 19 18 17 16 15 14 13 12 12 11 10 9 8 7 7 6 5 5 4 3 2 2 2 3 4 3 3 3 3 4 4 4 4 4 5 5 5 5 5
24 24 24 24 23 22 22 22 23 23 22 21 21 20 19 19 18 18 18 17 18 19 20 21 21 21 21 21 20 20 19 18 17 16 15 14 13 12 11 10 10 9 8 7 6 5 5 4 3 3 2 2 3 3 4 3 3 3 3 4 4 4 4 5 5 5 4 5 5
23 23 23 23 23 22 22 24 24 23 22 21 21 20 19 18 18 18 18 18 19 20 21 22 22 21 21 20 20 19 18 17 16 16 15 14 13 12 11 10 9 8 7 6 6 5 5 4 3 3 3 3 3 3 3 3 3 3 4 4 4 5 5 5 5 5 4 5 5
23 23 23 23 23 22 22 23 24 23 22 21 21 20 19 19 19 19 19 20 20 21 22 22 22 21 21 20 20 19 18 17 16 15 15 14 13 12 11 10 9 7 6 5 5 4 4 3 3 2 2 3 3 3 3 3 3 4 4 5 5 5 5 5 5 5 5 5 6
23 23 22 22 22 22 22 22 23 22 21 21 21 20 20 20 20 20 21 21 21 22 22 22 22 21 21 20 19 19 18 17 16 15 14 14 13 12 11 9 8 7 5 4 4 3 3 3 3 2 3 3 3 3 4 4 4 4 4 5 5 5 5 5 5 5 6 6 7
23 22 22 22 22 22 22 22 22 22 21 20 20 20 20 21 21 21 22 22 22 23 23 22 22 21 21 20 19 18 17 16 15 14 14 13 12 12 10 9 7 6 5 4 3 3 3 3 3 3 3 3 3 3 4 4 4 4 5 6 6 5 5 5 6 6 6 7 7
21 21 21 21 21 21 21 22 22 21 21 20 20 21 21 22 22 22 22 22 23 23 23 22 21 21 20 19 18 17 17 16 15 14 13 13 12 11 10 8 7 6 5 4 3 3 3 3 3 3 3 3 3 3 4 4 5 5 6 6 6 6 6 6 6 7 7 8 8
21 21 20 20 20 20 21 21 21 21 20 20 21 21 22 22 22 22 22 23 24 23 23 22 21 20 19 18 17 17 16 15 15 14 13 12 11 10 9 8 7 5 4 3 3 3 3 3 3 3 3 3 3 4 4 5 5 6 6 6 6 6 7 7 7 8 8 8 9
21 20 20 20 20 21 21 21 21 20 20 20 21 22 22 23 22 22 23 24 24 23 22 21 20 19 18 17 17 16 15 15 14 13 13 12 11 9 8 7 6 5 4 3 3 3 2 3 3 3 4 4 4 4 5 5 6 6 7 7 7 7 8 8 8 8 8 9 9
21 21 21 21 21 22 22 21 21 20 20 21 22 22 22 22 22 23 23 24 23 22 21 20 19 18 18 17 16 15 15 14 14 13 12 11 10 9 8 6 6 5 4 3 2 2 2 3 3 3 4 4 4 5 5 6 6 7 7 8 8 8 8 9 9 8 8 8 9
21 21 21 22 22 23 22 21 21 20 21 22 22 22 22 22 22 23 24 23 23 22 20 19 18 17 17 16 16 15 14 14 13 13 12 11 10 8 7 6 5 5 4 3 2 2 2 2 3 4 4 5 5 5 6 6 7 7 8 8 9 9 9 9 9 9 9 9 9
21 21 22 22 23 23 22 21 20 20 21 22 22 22 22 22 22 23 23 23 22 21 20 18 17 16 16 16 15 15 14 14 13 12 11 10 8 7 6 5 5 4 3 2 2 2 2 2 3 4 4 5 6 6 6 7 7 8 8 9 9 9 9 10 10 10 10 10 10
21 21 22 23 23 22 21 21 20 20 21 22 22 22 22 22 22 22 22 22 21 20 19 18 16 16 16 15 15 15 14 14 13 11 10 9 7 6 5 5 4 3 3 2 2 2 2 2 3 4 5 5 6 7 7 8 8 9 9 9 10 10 10 10 10 10 10 10 11
21 22 22 23 22 22 21 20 19 20 21 22 22 22 22 22 22 22 22 21 20 19 18 17 17 16 16 15 15 15 14 13 12 10 9 8 7 6 5 4 4 3 2 2 1 2 2 3 3 4 5 6 7 7 8 8 9 9 9 10 10 10 11 11 11 11 11 11 11
21 22 22 22 22 21 20 20 19 20 21 22 22 22 22 22 22 21 21 20 19 18 18 17 17 17 16 16 15 14 13 12 11 10 8 7 7 6 5 4 3 3 2 1 1 2 3 3 4 5 6 7 8 8 9 9 9 10 10 10 11 11 11 11 11 11 11 11 11
22 22 22 22 21 21 20 20 20 21 22 22 22 22 22 22 22 21 20 19 19 19 18 18 18 17 16 16 14 13 12 11 10 9 8 7 6 6 5 4 3 2 1 1 1 2 3 4 5 6 7 7 8 9 9 9 10 10 10 11 11 11 11 11 11 11 11 11 12
22 22 22 21 21 21 21 21 22 22 23 23 22 22 22 22 22 21 20 19 19 19 19 19 18 17 16 15 14 13 12 11 10 9 8 7 6 5 4 3 2 1 0 1 1 2 3 4 5 6 7 8 9 9 10 10 10 11 11 11 11 11 11 12 12 11 12 12 12
22 22 22 21 21 21 22 22 23 23 23 22 22 22 22 22 21 21 20 19 19 19 19 18 17 16 15 14 13 12 11 11 10 9 8 7 6 5 4 3 1 1 1 2 2 3 4 5 6 7 8 9 9 10 10 11 11 11 11 11 12 12 12 12 12 12 12 12 13
22 22 21 21 22 22 23 23 23 23 23 23 23 23 22 22 21 20 20 19 19 18 18 17 16 16 15 14 13 12 11 10 9 8 7 6 5 4 3 2 2 2 2 2 2 3 4 5 7 7 8 9 10 10 11 11 11 12 12 12 12 12 12 12 12 12 13 13 13
21 21 21 22 23 24 24 24 24 24 23 23 23 23 22 21 21 20 20 19 18 18 17 16 16 15 14 13 12 11 10 9 8 7 6 5 4 3 3 2 2 2 2 2 3 4 5 6 7 8 9 9 10 11 11 12 12 12 12 13 13 13 13 13 13 13 13 13 13
21 22 22 23 24 24 24 24 24 24 23 23 23 22 22 21 21 20 19 18 18 17 16 15 15 14 13 12 11 10 9 9 8 7 6 5 4 3 3 3 3 2 2 2 3 4 5 6 6 7 8 9 10 10 11 12 12 13 13 13 14 14 13 13 13 13 13 13 14
22 22 23 23 24 24 24 24 24 24 23 23 23 22 22 21 20 19 18 17 17 16 15 15 14 14 13 12 11 10 9 8 7 6 5 4 4 3 4 3 3 2 1 2 4 6 6 6 6 7 8 9 10 10 11 11 12 13 13 14 14 14 14 13 13 13 13 14 14
22 22 23 23 24 24 24 24 24 24 23 23 23 22 21 20 19 18 17 17 16 16 15 15 14 14 13 12 11 10 9 8 7 6 5 4 3 4 4 3 1 1 1 4 6 7 6 6 6 7 8 9 10 10 11 11 12 13 13 14 14 14 14 14 13 13 13 13 13
22 22 23 23 23 24 23 23 24 23 23 23 22 21 20 19 19 18 17 16 16 16 15 15 14 13 12 11 10 9 8 7 6 5 4 3 3 3 3 1 0 1 3 6 7 7 6 5 6 7 8 9 10 11 11 12 12 13 13 14 14 14 14 13 13 13 13 13 13
22 22 22 23 23 23 23 23 24 23 23 22 21 21 20 19 18 17 17 16 16 15 15 14 13 12 12 11 10 9 8 7 5 4 4 3 3 3 2 1 0 2 4 7 8 7 6 6 6 7 9 9 10 11 11 12 13 13 14 14 13 13 13 13 13 13 13 13 13
22 22 22 23 23 23 23 23 23 23 22 21 21 20 19 18 17 17 16 16 15 15 14 13 12 12 11 10 9 8 7 6 5 4 3 3 3 2 1 1 1 2 5 7 8 7 6 6 7 8 9 9 10 11 12 12 13 13 13 13 13 12 12 12 12 13 13 13 14
23 22 22 22 22 23 23 23 22 22 21 21 20 19 18 17 17 16 16 15 14 13 12 12 11 11 10 9 8 7 6 5 4 3 3 3 2 2 1 1 1 3 5 8 8 8 7 7 7 8 9 10 10 11 12 12 13 13 13 13 12 12 12 12 12 13 13 13 14
24 23 22 22 22 22 22 22 21 21 21 20 19 18 18 17 16 15 14 13 13 12 12 11 11 11 10 9 8 7 5 4 3 3 3 2 1 1 2 2 2 3 5 8 9 8 8 7 8 9 10 10 11 11 12 12 13 13 13 13 12 12 12 12 12 13 13 13 14
24 23 23 22 22 22 21 21 21 20 20 19 18 17 17 16 15 14 14 13 13 13 12 12 11 11 9 8 7 5 4 3 3 3 2 2 1 2 2 3 3 3 6 8 9 9 9 8 9 9 10 11 11 12 12 13 13 13 13 13 13 13 12 12 12 13 13 13 14
23 23 22 22 22 21 21 21 20 19 19 18 17 17 16 15 15 14 14 14 14 13 13 12 11 10 8 6 5 4 3 3 2 2 1 2 2 2 3 3 3 4 6 9 10 10 10 9 9 10 11 11 12 13 13 13 13 13 13 13 13 13 12 12 12 13 13 13 13
23 22 22 22 21 21 20 20 19 18 18 17 17 16 16 16 16 15 15 14 14 13 12 11 9 8 6 5 4 4 3 2 1 1 2 2 3 3 3 3 3 5 8 10 11 11 10 9 9 10 11 12 13 13 13 13 13 13 13 13 12 12 12 12 12 13 13 13 13
22 22 22 21 21 20 20 19 19 18 18 17 17 17 16 16 16 16 15 14 13 12 10 9 8 7 6 5 4 3 2 2 1 1 2 3 3 3 4 4 4 6 9 11 12 11 10 10 10 10 12 13 13 12 12 12 12 12 12 12 12 12 12 12 12 12 12 13 13
22 22 22 21 21 20 19 19 18 18 18 17 17 17 17 17 16 15 14 13 11 9 8 8 7 6 6 5 4 3 2 1 0 1 2 2 3 4 4 4 4 6 9 11 12 11 11 10 10 11 12 12 12 12 12 12 12 12 12 12 12 12 12 12 12 12 12 12 12
22 22 21 21 20 19 19 18 18 18 18 18 17 17 17 16 16 14 12 10 9 9 8 8 7 6 5 4 3 3 2 1 0 1 2 3 3 4 5 5 5 6 8 10 11 11 11 10 10 11 12 12 12 11 11 11 11 11 12 12 12 12 11 11 11 12 12 12 12
21 21 21 21 20 19 19 19 19 18 18 18 18 17 17 15 14 13 11 10 10 9 8 7 6 5 4 3 3 2 1 1 1 1 2 3 3 4 5 6 6 6 7 9 10 11 11 11 11 11 12 12 11 11 11 11 11 11 11 11 11 11 11 11 11 12 12 12 12
20 20 21 20 20 19 19 19 19 19 18 18 18 17 15 14 13 12 11 10 9 8 7 6 5 4 3 3 2 0 1 2 2 2 2 3 4 5 6 6 6 6 7 8 10 10 10 10 11 11 12 12 11 11 11 11 11 11 11 11 11 11 11 11 11 12 12 13 14
20 20 20 20 20 19 19 19 19 18 18 18 17 15 14 14 13 12 10 9 7 7 6 5 4 3 2 2 2 0 1 1 2 3 3 3 4 6 7 7 7 7 7 7 8 9 10 10 11 11 11 11 11 11 11 11 11 11 11 11 11 11 11 11 12 13 13 14 15
20 20 20 20 20 19 19 19 18 18 17 17 16 15 14 14 13 11 10 8 7 6 6 5 4 3 2 2 1 0 1 1 2 3 4 4 5 7 8 7 7 7 7 7 8 9 9 10 10 11 11 10 10 10 10 10 10 10 11 10 11 11 12 12 13 13 14 15 15
20 20 20 19 19 19 19 18 18 17 17 16 15 15 14 14 12 11 10 8 7 6 5 4 3 2 2 2 1 0 1 2 3 3 4 5 6 6 7 6 7 7 7 7 8 8 9 10 10 10 10 10 10 10 10 10 10 10 10 11 11 12 12 13 14 14 14 15 15
Wind_Direction
156 156 157 156 155 155 154 154 154 155 156 158 158 159 159 160 161 163 165 167 166 163 161 161 162 163 165 165 163 160 158 158 158 159 158 157 156 154 153 152 151 149 144 141 139 141 145 148 153 154 156 164 175 189 208 230 227 224 228 234 242 248 253 258 260 262 262 261 261
156 156 156 156 155 153 152 151 153 154 156 158 158 157 158 159 161 163 167 169 167 163 160 160 162 163 163 163 162 160 158 157 157 156 156 155 155 154 152 151 149 147 143 141 141 144 148 151 157 164 172 179 182 193 204 217 225 230 235 240 244 249 255 258 261 264 265 266 267
156 156 156 155 154 153 151 151 152 153 154 156 157 157 157 159 162 165 168 169 166 162 159 159 160 161 161 160 160 159 157 156 155 154 153 153 153 152 151 150 149 147 145 144 145 146 149 154 162 176 190 199 196 198 206 214 225 235 240 244 247 250 253 258 260 262 264 266 269
156 156 155 155 155 154 153 153 152 152 154 155 156 157 158 162 165 168 168 165 162 160 159 159 159 160 160 159 157 156 156 155 154 152 152 152 152 151 151 150 149 148 148 148 149 150 151 157 168 184 196 202 207 208 211 215 225 234 241 244 246 248 252 255 259 261 263 265 269
156 156 156 156 156 155 154 154 152 153 154 155 156 158 161 164 166 166 163 160 159 159 159 159 158 158 159 158 155 153 152 152 152 151 150 150 150 150 151 150 150 151 151 152 153 154 155 163 178 191 197 204 212 215 216 220 227 235 241 243 244 246 249 253 257 259 261 264 268
156 156 156 157 156 155 154 153 153 154 156 157 157 159 162 164 165 163 160 158 157 158 158 158 157 157 156 154 152 150 149 150 150 150 149 149 149 149 150 150 152 152 153 154 154 153 156 167 189 199 202 208 217 221 222 227 232 241 246 247 244 243 246 250 256 259 261 264 269
155 155 155 155 154 153 153 153 154 155 157 158 159 161 162 163 161 160 158 156 155 155 156 157 156 155 153 151 149 148 148 148 148 149 148 148 148 149 150 151 152 152 153 153 152 149 153 171 194 207 213 220 223 226 227 229 236 246 253 254 250 246 245 249 255 259 262 265 270
154 154 154 154 154 153 153 153 155 157 159 160 161 161 161 160 158 156 155 154 153 154 155 155 155 153 152 149 148 147 147 147 146 146 147 147 148 149 150 151 151 152 152 150 150 154 163 180 200 208 214 223 230 229 227 231 241 251 258 261 259 253 249 253 257 260 263 267 270
152 153 152 152 153 153 153 153 155 157 159 160 161 160 158 156 154 153 152 151 153 154 154 154 153 152 150 147 146 146 146 145 145 145 146 147 148 149 150 151 152 154 152 150 153 165 181 197 211 216 218 227 235 236 233 235 246 255 260 263 263 259 257 259 262 265 267 270 271
150 150 150 151 153 153 153 153 154 156 157 158 157 155 153 152 152 151 151 152 153 153 152 152 150 148 146 145 144 144 144 144 144 144 145 146 147 148 149 151 152 154 154 153 159 172 190 207 221 225 226 233 241 244 243 243 249 256 260 262 263 264 264 265 267 269 271 272 273
149 149 150 151 152 152 151 151 153 155 155 154 151 150 149 150 150 151 151 152 150 150 149 149 147 146 144 143 143 142 142 142 142 143 144 145 146 148 150 151 152 154 157 162 167 182 198 217 232 236 239 244 250 252 250 249 252 257 261 264 265 268 269 269 270 272 273 273 274
147 149 150 150 150 150 149 150 152 153 152 148 146 146 147 148 149 150 150 149 147 146 146 146 145 144 142 142 141 141 141 140 140 141 143 144 146 148 150 151 152 155 161 170 181 192 205 225 241 248 252 254 258 259 258 256 257 261 265 268 269 270 272 273 275 275 275 276 277
145 147 148 149 149 149 149 149 150 149 146 143 143 143 144 146 147 148 147 145 144 143 142 142 142 142 140 140 140 140 139 139 139 141 142 144 146 148 149 150 152 156 164 178 193 201 211 230 247 258 263 264 265 265 265 265 266 268 270 273 274 274 276 278 279 280 279 279 279
144 146 148 148 148 148 148 148 146 143 141 140 141 141 142 143 144 144 143 142 141 140 139 139 139 140 139 139 139 139 138 138 139 141 142 142 143 145 146 147 150 155 164 181 208 219 224 238 256 265 270 272 272 272 271 271 271 272 273 276 278 279 281 282 282 282 282 281 280
145 147 148 148 148 148 147 145 142 140 139 139 140 140 140 140 140 141 140 139 138 138 137 137 136 137 139 140 139 138 138 138 139 139 138 138 138 139 140 142 144 149 161 182 224 248 255 255 262 270 274 276 276 277 275 275 274 275 276 277 279 281 282 284 284 284 283 283 283
146 148 149 149 148 147 146 143 139 137 138 138 139 139 138 138 138 138 138 137 136 136 136 135 135 135 137 139 139 138 137 137 136 135 133 133 134 135 136 138 141 147 162 190 230 256 267 269 270 273 275 277 279 279 278 278 278 278 278 279 280 282 283 284 284 284 284 283 283
148 149 149 149 148 146 144 141 138 137 137 138 138 138 137 137 137 137 136 136 136 136 135 136 136 135 136 137 137 136 134 133 131 129 129 130 132 133 134 136 143 155 169 188 233 260 267 272 275 275 277 277 279 279 280 280 280 280 281 281 282 282 283 284 284 284 284 283 283
149 149 149 148 147 145 142 139 137 136 136 137 136 136 136 136 136 135 135 136 136 137 136 136 136 136 135 134 133 132 130 129 128 128 128 130 131 133 135 140 151 161 168 168 247 276 279 279 278 278 278 278 279 279 280 281 282 282 282 283 283 283 283 284 284 284 283 283 283
149 149 148 147 146 142 138 136 135 135 135 135 135 135 134 135 135 134 134 134 136 137 136 136 135 134 133 132 130 128 127 127 128 129 130 133 133 134 136 141 150 140 74 44 312 293 288 285 283 282 281 281 280 281 281 281 282 283 283 284 284 284 285 285 284 284 283 282 283
148 147 146 145 141 137 135 134 133 133 133 133 132 132 132 132 133 133 132 133 134 136 135 134 133 132 131 130 128 127 128 130 130 131 133 136 135 135 136 133 121 59 24 6 326 300 291 289 287 286 285 284 283 283 283 283 282 283 283 284 285 285 286 286 286 285 284 282 282
145 144 142 138 135 133 132 132 132 131 131 130 130 130 130 130 130 130 130 131 132 132 132 132 132 131 130 128 127 128 130 132 132 132 132 133 131 128 122 110 85 51 23 351 317 301 296 293 292 290 289 287 286 285 285 284 283 283 283 284 285 286 287 287 287 287 286 284 284
140 137 134 132 132 131 130 130 130 129 128 128 128 128 128 128 128 129 129 129 129 129 129 129 130 129 129 128 128 129 130 131 131 129 125 121 116 108 93 74 60 46 20 334 313 303 299 298 296 295 293 291 289 288 288 287 286 286 286 286 286 287 288 288 289 289 288 288 286
132 130 129 129 129 129 128 128 127 127 126 126 126 127 127 127 127 127 127 127 127 126 126 126 127 127 128 129 129 127 126 124 122 118 112 105 96 81 62 47 43 36 8 327 306 295 292 295 299 301 300 298 296 295 293 293 292 291 289 289 289 289 289 289 290 290 291 290 289
127 127 127 127 127 127 127 126 125 124 124 124 125 125 126 126 126 125 125 125 125 125 125 125 126 127 128 128 126 122 119 115 111 106 98 88 75 59 47 41 36 31 349 306 289 291 295 298 304 308 308 305 303 301 299 298 296 294 293 292 291 291 291 291 291 291 292 291 291
124 125 125 126 126 125 125 124 123 123 123 124 125 125 124 124 124 124 124 123 124 125 126 127 128 128 127 125 121 117 112 107 105 100 91 77 60 48 43 42 37 19 289 284 296 304 310 310 311 311 310 308 306 303 301 299 297 295 294 292 292 292 291 291 291 292 292 293 293
123 123 123 124 124 123 122 122 122 122 122 123 123 123 123 123 124 124 123 123 125 126 127 127 126 125 123 119 116 113 109 107 105 100 92 78 56 44 42 43 35 269 277 288 304 314 319 319 316 312 308 307 305 303 301 299 297 295 293 292 291 290 290 291 292 293 295 296 297
121 122 122 123 122 121 120 121 121 121 121 122 122 122 123 123 123 123 123 124 125 125 125 124 122 120 118 115 113 113 111 108 103 96 85 68 53 45 37 14 315 270 281 295 311 320 324 322 315 310 307 306 305 303 300 298 296 294 292 290 288 288 288 290 293 296 298 300 301
121 121 121 121 120 119 119 120 120 120 120 121 122 122 122 122 122 123 123 123 123 122 121 119 119 117 115 113 114 112 108 100 90 77 62 45 35 32 21 323 288 280 290 303 316 324 326 321 314 311 309 307 304 301 298 296 295 293 292 290 289 288 289 292 295 298 301 302 304
122 122 121 120 119 119 119 119 119 120 120 121 122 122 121 121 121 121 121 120 119 117 116 117 117 115 114 113 111 104 95 85 72 56 42 37 30 15 334 299 286 283 293 306 319 326 326 320 314 311 309 307 304 301 297 294 293 292 292 291 290 290 292 294 297 300 301 303 304
123 122 121 119 119 118 119 119 120 120 121 121 121 121 120 119 119 118 116 115 115 115 117 117 116 114 113 108 101 92 83 74 58 46 40 40 21 324 303 294 286 283 294 307 319 326 325 318 314 311 309 307 304 300 296 293 292 291 290 290 290 291 293 295 297 299 301 302 304
122 121 120 119 118 118 119 119 120 120 120 120 120 119 118 117 116 115 115 116 118 119 118 116 113 110 104 97 90 84 75 65 53 45 38 27 345 314 306 298 288 280 290 304 317 324 324 318 313 311 309 308 306 301 296 292 291 290 289 289 290 291 293 295 297 299 300 302 303
119 119 119 118 117 118 119 119 119 119 119 119 118 117 116 115 116 118 119 120 120 118 115 110 106 100 94 89 85 83 80 74 65 44 17 357 335 322 313 303 290 277 284 300 314 323 323 318 314 311 310 309 306 301 296 293 291 290 289 289 290 291 293 295 297 298 299 301 302
118 118 118 118 118 118 119 119 119 118 118 117 117 116 117 118 119 120 120 119 116 113 110 105 100 96 95 94 96 98 100 97 74 6 350 347 338 327 313 302 293 278 282 298 312 321 324 320 315 313 312 311 308 303 298 295 294 293 291 291 291 292 294 295 296 297 299 300 301
119 119 119 118 118 119 119 119 118 118 117 116 117 118 120 121 121 120 119 116 113 110 107 105 105 107 110 114 119 124 125 116 77 351 341 339 332 320 311 302 293 284 287 299 312 320 324 322 318 316 316 314 310 305 301 299 297 296 294 294 294 295 296 296 297 298 299 300 301
121 120 119 119 119 119 119 118 118 118 117 117 118 120 122 122 121 119 117 115 112 110 109 110 112 114 116 117 118 119 119 116 85 337 328 326 322 315 309 303 295 290 293 300 310 319 323 324 321 321 320 318 314 309 305 303 301 299 297 297 297 298 299 299 300 301 301 301 302
122 121 119 119 118 119 119 119 119 119 119 118 119 120 121 120 119 117 115 113 111 110 111 111 110 109 109 107 105 102 99 95 26 321 316 317 317 313 310 304 301 295 295 300 308 316 323 326 325 325 324 322 317 313 310 307 304 302 300 300 300 301 302 304 304 304 304 303 304
121 121 120 119 119 119 119 120 120 119 118 119 120 120 119 118 117 115 114 113 111 111 111 111 112 113 115 117 121 118 86 10 346 326 313 311 311 310 309 307 303 299 297 299 306 315 323 328 328 328 328 325 321 316 313 310 307 304 303 303 303 305 307 308 308 308 307 307 308
121 121 120 120 119 120 120 121 120 119 119 120 121 121 121 120 118 116 115 113 113 116 118 119 119 120 119 121 129 140 328 340 340 328 313 307 304 305 306 306 304 302 300 301 307 316 323 327 329 330 330 326 322 319 315 312 309 307 306 306 307 309 310 312 312 311 310 310 309
120 121 121 120 120 120 120 120 120 120 121 121 122 122 123 123 122 120 118 117 117 119 120 118 117 111 97 92 108 126 312 319 321 319 311 304 300 303 307 308 306 305 306 307 312 318 324 327 329 330 330 328 324 320 317 313 310 309 308 309 311 312 314 315 315 313 311 310 309
120 120 120 120 120 120 120 119 120 122 123 123 123 124 125 125 124 123 120 118 115 114 113 114 111 95 76 77 101 166 254 280 292 298 300 301 300 306 311 312 309 309 312 314 318 322 325 327 329 331 331 330 326 322 318 315 312 310 311 313 315 317 317 317 316 313 311 310 309
118 118 118 119 120 120 120 120 121 123 125 126 126 125 125 124 121 118 116 113 111 109 109 109 102 86 67 65 72 268 271 275 278 284 291 298 301 306 309 309 309 312 317 321 323 325 326 327 329 331 332 331 328 323 320 316 314 313 315 317 319 319 318 317 315 312 310 310 310